STARLINK-2632 (48448 NORAD) Tracking and Keplerian Element Data

This shows tracking and keplerian element data for the satellite.

Feedback or suggestion? Click here.




ElementValue
Catalog48448
NameSTARLINK-2632
Epoch Orbit365
Epoch Day214.91667824
Epoch Year2021
RAAN162.4002
Inclination53.0517
Eccentricity0.000174
Argument of Perigee83.6282
Mean Anonmoly315.2565
Mean Motion15.063968
Decay Rate-0.00010803
L11 48448U 21040W 21214.91667824 -.00010803 00000-0 -70751-3 0 9995
L22 48448 53.0517 162.4002 0001740 83.6282 315.2565 15.06396800 3656

Live tracking and technical data element details for STARLINK-2632 (NORAD 48448). STARLINK-2632 can be tracked NOW for your location showing map with azimuth and elevation plus other details from your city location.

Track the satellite on the map from your city or location and see movement details for azimuth, elevation, latitude, longitude, range, height, and movement on the map or in text.







IsCatalogInMostPopularTable: catalog: 48448, numindb: 27
Update: records affected: 1



GetName: 48448 STARLINK-2632

Hit Count: updated at: Tue, 03 Aug 2021 20:12:13 GMT